QPF
0.05 0.05 0.05 0.04 0.04 0.03 0.03 0.03 0.05 0.07 0.10 0.10 0.10 0.11 0.10 0.09 0.12 0.12 0.07 0.05 0.03 0.03 0.03 0.02 0.02 0.02 0.02 0.04 0.04 0.04 0.04 0.03 0.02 0.01 0.01 0.01 0.01 0.01 0.02 0.02 0.02 0.01 0.01
0.07 0.05 0.04 0.05 0.05 0.04 0.03 0.05 0.07 0.09 0.08 0.06 0.05 0.06 0.07 0.10 0.12 0.07 0.04 0.02 0.02 0.02 0.02 0.02 0.02 0.02 0.01 0.02 0.03 0.04 0.04 0.05 0.03 0.02 0.01 0.01 0.01 0.02 0.03 0.03 0.02 0.02 0.01
0.06 0.05 0.05 0.05 0.06 0.05 0.04 0.05 0.08 0.09 0.06 0.04 0.03 0.04 0.05 0.06 0.04 0.02 0.02 0.02 0.01 0.01 0.01 0.01 0.01 0.02 0.02 0.03 0.03 0.04 0.04 0.05 0.04 0.02 0.01 0.02 0.02 0.02 0.02 0.02 0.02 0.02 0.01
0.05 0.05 0.04 0.04 0.05 0.06 0.06 0.06 0.06 0.05 0.04 0.03 0.03 0.02 0.02 0.02 0.02 0.02 0.02 0.01 0.01 0.01 0.02 0.02 0.01 0.02 0.03 0.03 0.03 0.04 0.04 0.04 0.05 0.04 0.02 0.02 0.02 0.02 0.01 0.02 0.02 0.02 0.02
0.04 0.03 0.04 0.03 0.04 0.05 0.05 0.05 0.06 0.05 0.03 0.03 0.03 0.02 0.02 0.02 0.02 0.02 0.02 0.01 0.02 0.02 0.02 0.02 0.01 0.03 0.03 0.03 0.03 0.03 0.04 0.03 0.03 0.03 0.03 0.03 0.02 0.03 0.02 0.02 0.02 0.02 0.02
0.04 0.05 0.06 0.07 0.07 0.07 0.07 0.08 0.07 0.06 0.04 0.04 0.03 0.03 0.04 0.03 0.02 0.02 0.03 0.03 0.03 0.03 0.02 0.03 0.03 0.03 0.03 0.04 0.04 0.05 0.04 0.03 0.03 0.03 0.03 0.02 0.03 0.04 0.04 0.04 0.03 0.02 0.02
0.04 0.05 0.07 0.08 0.08 0.08 0.08 0.07 0.07 0.07 0.08 0.07 0.06 0.06 0.05 0.06 0.06 0.06 0.05 0.05 0.05 0.04 0.04 0.04 0.04 0.04 0.06 0.05 0.06 0.06 0.04 0.03 0.03 0.03 0.02 0.01 0.02 0.03 0.04 0.04 0.04 0.03 0.03
0.05 0.07 0.07 0.07 0.07 0.08 0.12 0.13 0.12 0.11 0.10 0.10 0.09 0.09 0.10 0.10 0.09 0.09 0.09 0.09 0.08 0.08 0.08 0.06 0.06 0.05 0.06 0.06 0.06 0.04 0.02 0.02 0.03 0.03 0.02 0.02 0.03 0.04 0.05 0.05 0.06 0.05 0.05
0.05 0.05 0.06 0.06 0.06 0.07 0.08 0.08 0.08 0.10 0.09 0.11 0.10 0.09 0.10 0.11 0.12 0.12 0.13 0.11 0.10 0.09 0.09 0.07 0.06 0.05 0.06 0.07 0.06 0.04 0.03 0.02 0.03 0.03 0.03 0.04 0.04 0.06 0.06 0.06 0.06 0.07 0.06
0.05 0.05 0.04 0.03 0.04 0.05 0.05 0.05 0.05 0.06 0.06 0.07 0.07 0.09 0.12 0.14 0.15 0.16 0.15 0.12 0.10 0.07 0.06 0.06 0.06 0.05 0.04 0.05 0.04 0.03 0.02 0.02 0.03 0.03 0.03 0.04 0.05 0.06 0.07 0.06 0.06 0.06 0.07
0.05 0.03 0.02 0.02 0.03 0.04 0.05 0.05 0.06 0.07 0.07 0.06 0.05 0.05 0.06 0.08 0.11 0.13 0.13 0.11 0.08 0.06 0.05 0.04 0.03 0.03 0.04 0.03 0.03 0.03 0.03 0.04 0.04 0.04 0.04 0.03 0.04 0.04 0.05 0.06 0.07 0.06 0.06
0.05 0.04 0.02 0.03 0.04 0.04 0.04 0.04 0.06 0.07 0.07 0.06 0.06 0.05 0.04 0.05 0.07 0.08 0.08 0.08 0.06 0.05 0.05 0.04 0.03 0.03 0.03 0.03 0.03 0.03 0.04 0.05 0.04 0.03 0.03 0.03 0.03 0.03 0.04 0.05 0.07 0.09 0.07
0.05 0.04 0.03 0.03 0.03 0.04 0.04 0.05 0.05 0.06 0.07 0.06 0.05 0.05 0.05 0.05 0.06 0.09 0.08 0.07 0.06 0.04 0.03 0.03 0.03 0.03 0.03 0.04 0.03 0.03 0.03 0.03 0.03 0.03 0.03 0.02 0.03 0.04 0.05 0.05 0.06 0.07 0.08
0.05 0.05 0.05 0.06 0.06 0.05 0.05 0.06 0.06 0.06 0.05 0.05 0.06 0.06 0.07 0.07 0.06 0.06 0.07 0.07 0.08 0.07 0.05 0.04 0.04 0.04 0.04 0.05 0.04 0.04 0.03 0.03 0.03 0.02 0.02 0.03 0.03 0.05 0.06 0.07 0.08 0.08 0.08
0.05 0.06 0.06 0.06 0.06 0.06 0.06 0.06 0.06 0.06 0.05 0.05 0.06 0.07 0.07 0.06 0.06 0.06 0.06 0.08 0.09 0.10 0.11 0.10 0.08 0.07 0.07 0.06 0.06 0.06 0.06 0.05 0.04 0.03 0.02 0.02 0.02 0.02 0.03 0.04 0.06 0.07 0.06
0.07 0.06 0.05 0.05 0.05 0.05 0.05 0.06 0.05 0.05 0.06 0.05 0.04 0.06 0.08 0.06 0.06 0.07 0.07 0.08 0.09 0.09 0.10 0.10 0.09 0.09 0.09 0.08 0.08 0.08 0.06 0.05 0.04 0.03 0.03 0.02 0.02 0.02 0.02 0.03 0.03 0.04 0.04
0.08 0.08 0.06 0.06 0.07 0.06 0.04 0.03 0.03 0.03 0.03 0.03 0.03 0.03 0.04 0.05 0.06 0.06 0.06 0.06 0.06 0.05 0.04 0.05 0.05 0.05 0.05 0.07 0.07 0.05 0.04 0.04 0.04 0.03 0.03 0.03 0.03 0.03 0.03 0.03 0.03 0.04 0.04
0.07 0.07 0.07 0.07 0.06 0.05 0.04 0.03 0.03 0.03 0.02 0.02 0.02 0.03 0.04 0.05 0.05 0.06 0.06 0.05 0.04 0.03 0.03 0.03 0.04 0.07 0.08 0.09 0.08 0.07 0.05 0.06 0.06 0.06 0.06 0.06 0.07 0.06 0.06 0.05 0.04 0.04 0.04
0.06 0.08 0.08 0.09 0.07 0.06 0.04 0.04 0.03 0.03 0.03 0.03 0.03 0.04 0.05 0.05 0.06 0.06 0.05 0.04 0.03 0.02 0.02 0.02 0.02 0.04 0.05 0.06 0.07 0.08 0.09 0.09 0.09 0.07 0.06 0.07 0.08 0.08 0.08 0.07 0.05 0.04 0.04
0.05 0.08 0.09 0.11 0.11 0.07 0.04 0.03 0.03 0.02 0.02 0.02 0.03 0.04 0.05 0.06 0.06 0.06 0.06 0.04 0.03 0.03 0.02 0.01 0.02 0.02 0.02 0.03 0.03 0.04 0.05 0.06 0.06 0.07 0.06 0.06 0.05 0.05 0.05 0.04 0.03 0.03 0.03
0.03 0.03 0.04 0.05 0.04 0.03 0.03 0.02 0.01 0.01 0.01 0.02 0.02 0.04 0.05 0.05 0.07 0.06 0.07 0.07 0.06 0.04 0.03 0.02 0.02 0.02 0.02 0.03 0.04 0.03 0.03 0.04 0.04 0.04 0.03 0.03 0.03 0.03 0.03 0.03 0.03 0.03 0.03
0.02 0.01 0.02 0.02 0.03 0.02 0.02 0.01 0.01 0.01 0.01 0.01 0.02 0.03 0.05 0.05 0.05 0.07 0.07 0.08 0.09 0.09 0.06 0.05 0.05 0.05 0.04 0.03 0.03 0.03 0.03 0.03 0.04 0.04 0.04 0.03 0.03 0.03 0.02 0.02 0.03 0.03 0.03
0.02 0.01 0.01 0.01 0.02 0.03 0.03 0.02 0.02 0.02 0.02 0.02 0.03 0.04 0.04 0.05 0.06 0.06 0.08 0.10 0.11 0.12 0.11 0.09 0.07 0.06 0.06 0.05 0.04 0.03 0.03 0.03 0.03 0.04 0.04 0.04 0.03 0.03 0.02 0.02 0.02 0.02 0.02
0.02 0.02 0.01 0.01 0.02 0.02 0.02 0.02 0.02 0.02 0.02 0.03 0.04 0.06 0.07 0.07 0.08 0.08 0.08 0.09 0.11 0.11 0.11 0.12 0.10 0.08 0.07 0.05 0.04 0.03 0.03 0.03 0.03 0.04 0.04 0.04 0.03 0.03 0.02 0.02 0.02 0.02 0.02
0.05 0.04 0.03 0.02 0.02 0.02 0.02 0.01 0.01 0.01 0.01 0.02 0.03 0.04 0.07 0.08 0.07 0.08 0.08 0.07 0.07 0.08 0.08 0.09 0.10 0.09 0.08 0.06 0.04 0.04 0.04 0.04 0.04 0.03 0.03 0.03 0.03 0.03 0.02 0.02 0.02 0.02 0.02
0.09 0.07 0.05 0.03 0.01 0.01 0.01 0.01 0.01 0.01 0.02 0.04 0.04 0.04 0.04 0.04 0.05 0.07 0.08 0.07 0.06 0.06 0.06 0.07 0.08 0.07 0.06 0.05 0.04 0.04 0.03 0.03 0.03 0.03 0.04 0.04 0.04 0.03 0.02 0.02 0.01 0.02 0.02
MSLP
1003.86 1003.58 1003.49 1003.54 1003.69 1003.92 1004.20 1004.51 1004.86 1005.24 1005.65 1006.09 1006.55 1007.01 1007.45 1007.85 1008.22 1008.54 1008.84 1009.14 1009.45 1009.79 1010.18 1010.61 1011.07 1011.54 1011.99 1012.38 1012.70 1012.92 1013.04 1013.04 1012.95 1012.77 1012.53 1012.25 1011.95 1011.65 1011.38 1011.15 1010.99 1010.90 1010.90
1003.93 1003.56 1003.36 1003.31 1003.37 1003.51 1003.71 1003.95 1004.25 1004.59 1004.97 1005.39 1005.83 1006.28 1006.71 1007.12 1007.49 1007.82 1008.13 1008.42 1008.72 1009.04 1009.40 1009.81 1010.24 1010.68 1011.12 1011.52 1011.87 1012.13 1012.31 1012.39 1012.38 1012.29 1012.13 1011.92 1011.68 1011.43 1011.18 1010.97 1010.81 1010.71 1010.68
1004.27 1003.84 1003.56 1003.40 1003.34 1003.37 1003.45 1003.59 1003.78 1004.04 1004.35 1004.71 1005.10 1005.52 1005.93 1006.33 1006.69 1007.02 1007.33 1007.61 1007.90 1008.21 1008.55 1008.93 1009.33 1009.76 1010.18 1010.58 1010.95 1011.25 1011.48 1011.64 1011.71 1011.71 1011.64 1011.53 1011.37 1011.19 1011.01 1010.85 1010.72 1010.64 1010.61
1004.83 1004.37 1004.02 1003.77 1003.59 1003.47 1003.41 1003.41 1003.48 1003.61 1003.82 1004.08 1004.41 1004.76 1005.13 1005.48 1005.82 1006.14 1006.42 1006.70 1006.98 1007.27 1007.59 1007.94 1008.32 1008.73 1009.14 1009.55 1009.93 1010.27 1010.55 1010.76 1010.91 1011.00 1011.03 1011.01 1010.95 1010.87 1010.79 1010.71 1010.65 1010.62 1010.63
1005.52 1005.05 1004.65 1004.31 1004.01 1003.75 1003.55 1003.40 1003.32 1003.32 1003.40 1003.55 1003.78 1004.05 1004.34 1004.64 1004.92 1005.19 1005.44 1005.68 1005.93 1006.20 1006.50 1006.83 1007.20 1007.59 1008.01 1008.42 1008.82 1009.18 1009.50 1009.77 1009.98 1010.15 1010.26 1010.34 1010.38 1010.41 1010.43 1010.46 1010.49 1010.55 1010.63
1006.25 1005.78 1005.34 1004.92 1004.52 1004.14 1003.80 1003.51 1003.29 1003.16 1003.11 1003.16 1003.27 1003.44 1003.64 1003.84 1004.05 1004.24 1004.42 1004.61 1004.81 1005.04 1005.30 1005.62 1005.97 1006.36 1006.78 1007.20 1007.62 1008.00 1008.36 1008.67 1008.93 1009.16 1009.34 1009.50 1009.64 1009.77 1009.90 1010.04 1010.18 1010.34 1010.51
1006.94 1006.48 1006.01 1005.53 1005.04 1004.56 1004.11 1003.71 1003.38 1003.14 1002.99 1002.93 1002.94 1002.99 1003.08 1003.17 1003.27 1003.35 1003.44 1003.54 1003.67 1003.84 1004.06 1004.35 1004.69 1005.08 1005.50 1005.94 1006.38 1006.79 1007.17 1007.51 1007.81 1008.08 1008.31 1008.53 1008.74 1008.96 1009.18 1009.42 1009.68 1009.94 1010.21
1007.53 1007.07 1006.58 1006.06 1005.52 1004.98 1004.46 1003.99 1003.59 1003.28 1003.06 1002.90 1002.81 1002.76 1002.73 1002.70 1002.66 1002.62 1002.58 1002.56 1002.60 1002.69 1002.86 1003.10 1003.43 1003.81 1004.24 1004.70 1005.16 1005.59 1006.00 1006.36 1006.69 1006.98 1007.24 1007.50 1007.76 1008.03 1008.32 1008.64 1008.98 1009.34 1009.71
1008.02 1007.56 1007.05 1006.51 1005.94 1005.37 1004.82 1004.33 1003.91 1003.57 1003.30 1003.09 1002.92 1002.77 1002.61 1002.45 1002.26 1002.07 1001.89 1001.75 1001.67 1001.67 1001.77 1001.97 1002.26 1002.64 1003.08 1003.55 1004.03 1004.49 1004.92 1005.30 1005.64 1005.95 1006.22 1006.50 1006.78 1007.08 1007.41 1007.78 1008.18 1008.61 1009.06
1008.42 1007.95 1007.43 1006.88 1006.31 1005.74 1005.21 1004.74 1004.33 1003.98 1003.70 1003.45 1003.22 1002.98 1002.71 1002.42 1002.09 1001.75 1001.43 1001.14 1000.94 1000.84 1000.86 1001.00 1001.27 1001.63 1002.07 1002.56 1003.06 1003.54 1003.99 1004.39 1004.74 1005.06 1005.34 1005.62 1005.90 1006.21 1006.56 1006.95 1007.38 1007.86 1008.35
1008.78 1008.29 1007.76 1007.21 1006.65 1006.11 1005.62 1005.18 1004.81 1004.49 1004.21 1003.94 1003.66 1003.35 1002.98 1002.57 1002.11 1001.63 1001.17 1000.75 1000.43 1000.23 1000.17 1000.26 1000.48 1000.83 1001.26 1001.76 1002.27 1002.78 1003.25 1003.67 1004.04 1004.37 1004.66 1004.94 1005.22 1005.53 1005.87 1006.26 1006.70 1007.18 1007.71
1009.10 1008.59 1008.06 1007.52 1006.99 1006.49 1006.04 1005.66 1005.32 1005.03 1004.76 1004.48 1004.17 1003.79 1003.34 1002.83 1002.26 1001.67 1001.09 1000.57 1000.15 999.86 999.72 999.75 999.94 1000.26 1000.68 1001.17 1001.70 1002.22 1002.71 1003.16 1003.55 1003.90 1004.20 1004.49 1004.78 1005.08 1005.41 1005.79 1006.22 1006.70 1007.22
1009.41 1008.89 1008.36 1007.83 1007.33 1006.87 1006.47 1006.13 1005.83 1005.56 1005.30 1005.00 1004.65 1004.23 1003.72 1003.13 1002.48 1001.81 1001.15 1000.55 1000.06 999.71 999.52 999.50 999.64 999.92 1000.32 1000.80 1001.33 1001.86 1002.37 1002.84 1003.26 1003.64 1003.97 1004.28 1004.58 1004.89 1005.22 1005.59 1006.00 1006.46 1006.97
1009.70 1009.18 1008.65 1008.14 1007.67 1007.25 1006.88 1006.57 1006.29 1006.03 1005.75 1005.44 1005.06 1004.59 1004.04 1003.41 1002.72 1002.01 1001.32 1000.69 1000.16 999.78 999.55 999.49 999.59 999.84 1000.20 1000.66 1001.17 1001.69 1002.21 1002.70 1003.16 1003.57 1003.94 1004.29 1004.61 1004.94 1005.27 1005.64 1006.04 1006.48 1006.96
1009.96 1009.44 1008.93 1008.45 1008.00 1007.61 1007.26 1006.96 1006.68 1006.41 1006.11 1005.77 1005.35 1004.86 1004.29 1003.64 1002.96 1002.25 1001.57 1000.96 1000.44 1000.06 999.82 999.73 999.80 1000.01 1000.33 1000.74 1001.22 1001.73 1002.24 1002.74 1003.22 1003.67 1004.08 1004.46 1004.83 1005.18 1005.53 1005.90 1006.29 1006.71 1007.16
1010.14 1009.65 1009.17 1008.72 1008.31 1007.93 1007.60 1007.29 1006.99 1006.69 1006.36 1005.98 1005.54 1005.03 1004.46 1003.84 1003.19 1002.54 1001.92 1001.36 1000.89 1000.54 1000.31 1000.22 1000.27 1000.43 1000.71 1001.07 1001.50 1001.96 1002.45 1002.95 1003.44 1003.90 1004.35 1004.77 1005.17 1005.56 1005.93 1006.30 1006.69 1007.08 1007.50
1010.23 1009.78 1009.34 1008.94 1008.55 1008.20 1007.87 1007.55 1007.22 1006.88 1006.51 1006.10 1005.64 1005.14 1004.59 1004.02 1003.44 1002.88 1002.35 1001.88 1001.49 1001.20 1001.01 1000.93 1000.96 1001.09 1001.31 1001.61 1001.97 1002.39 1002.83 1003.30 1003.78 1004.26 1004.72 1005.16 1005.59 1006.00 1006.39 1006.76 1007.14 1007.51 1007.90
1010.20 1009.80 1009.42 1009.06 1008.72 1008.39 1008.06 1007.72 1007.37 1006.99 1006.59 1006.15 1005.69 1005.20 1004.70 1004.20 1003.71 1003.26 1002.85 1002.49 1002.20 1001.99 1001.85 1001.79 1001.81 1001.91 1002.08 1002.31 1002.61 1002.96 1003.35 1003.78 1004.23 1004.69 1005.15 1005.60 1006.03 1006.45 1006.84 1007.22 1007.58 1007.93 1008.27
1010.02 1009.69 1009.38 1009.08 1008.78 1008.47 1008.15 1007.80 1007.43 1007.02 1006.59 1006.14 1005.68 1005.22 1004.78 1004.36 1003.98 1003.64 1003.35 1003.11 1002.93 1002.80 1002.72 1002.69 1002.71 1002.78 1002.91 1003.09 1003.32 1003.60 1003.94 1004.31 1004.72 1005.15 1005.59 1006.03 1006.46 1006.86 1007.24 1007.60 1007.94 1008.26 1008.57
1009.71 1009.45 1009.20 1008.96 1008.70 1008.42 1008.11 1007.76 1007.37 1006.95 1006.51 1006.06 1005.61 1005.19 1004.81 1004.47 1004.19 1003.96 1003.78 1003.65 1003.56 1003.51 1003.48 1003.48 1003.51 1003.56 1003.65 1003.79 1003.97 1004.20 1004.48 1004.81 1005.18 1005.57 1005.98 1006.40 1006.80 1007.19 1007.55 1007.88 1008.19 1008.48 1008.75
1009.28 1009.07 1008.88 1008.69 1008.47 1008.22 1007.92 1007.58 1007.19 1006.76 1006.32 1005.88 1005.46 1005.07 1004.74 1004.47 1004.27 1004.13 1004.03 1003.99 1003.97 1003.97 1003.98 1004.00 1004.04 1004.08 1004.15 1004.26 1004.41 1004.60 1004.85 1005.15 1005.49 1005.86 1006.25 1006.64 1007.02 1007.38 1007.71 1008.02 1008.30 1008.56 1008.80
1008.74 1008.58 1008.44 1008.28 1008.09 1007.86 1007.58 1007.25 1006.86 1006.45 1006.01 1005.59 1005.19 1004.84 1004.55 1004.33 1004.18 1004.08 1004.04 1004.03 1004.05 1004.08 1004.10 1004.13 1004.17 1004.21 1004.27 1004.37 1004.51 1004.70 1004.94 1005.23 1005.56 1005.92 1006.30 1006.67 1007.04 1007.38 1007.70 1007.98 1008.24 1008.48 1008.70
1008.17 1008.03 1007.91 1007.78 1007.61 1007.40 1007.13 1006.81 1006.44 1006.03 1005.61 1005.20 1004.83 1004.50 1004.23 1004.03 1003.89 1003.81 1003.77 1003.76 1003.77 1003.78 1003.80 1003.82 1003.84 1003.87 1003.94 1004.04 1004.19 1004.39 1004.65 1004.96 1005.31 1005.68 1006.07 1006.45 1006.82 1007.16 1007.47 1007.75 1008.01 1008.24 1008.45
1007.63 1007.51 1007.40 1007.27 1007.11 1006.91 1006.65 1006.34 1005.98 1005.59 1005.19 1004.80 1004.44 1004.12 1003.86 1003.64 1003.49 1003.38 1003.30 1003.24 1003.20 1003.16 1003.13 1003.11 1003.10 1003.12 1003.18 1003.29 1003.46 1003.70 1003.99 1004.33 1004.72 1005.12 1005.54 1005.95 1006.34 1006.70 1007.02 1007.31 1007.57 1007.81 1008.04
1007.22 1007.10 1006.99 1006.86 1006.70 1006.50 1006.25 1005.95 1005.61 1005.24 1004.86 1004.49 1004.13 1003.81 1003.53 1003.29 1003.09 1002.91 1002.76 1002.63 1002.50 1002.38 1002.27 1002.18 1002.12 1002.10 1002.15 1002.26 1002.44 1002.70 1003.03 1003.41 1003.84 1004.28 1004.74 1005.18 1005.60 1005.99 1006.34 1006.66 1006.94 1007.21 1007.46
1007.03 1006.91 1006.79 1006.66 1006.50 1006.30 1006.06 1005.77 1005.45 1005.10 1004.74 1004.39 1004.04 1003.71 1003.41 1003.12 1002.85 1002.60 1002.35 1002.10 1001.86 1001.63 1001.42 1001.24 1001.10 1001.03 1001.03 1001.12 1001.30 1001.56 1001.90 1002.31 1002.76 1003.24 1003.73 1004.20 1004.65 1005.07 1005.45 1005.80 1006.12 1006.41 1006.70
Thickness
5781 5779 5776 5774 5773 5770 5768 5766 5763 5761 5759 5756 5755 5752 5750 5748 5746 5744 5742 5741 5738 5736 5735 5733 5731 5730 5728 5727 5725 5723 5721 5719 5716 5718 5718 5718 5717 5717 5717 5716 5716 5715 5714
5780 5777 5774 5772 5769 5767 5765 5763 5761 5759 5757 5755 5752 5750 5747 5745 5744 5742 5740 5739 5737 5734 5732 5730 5729 5728 5726 5724 5722 5721 5719 5718 5716 5714 5714 5714 5713 5713 5712 5712 5711 5711 5710
5776 5773 5770 5767 5765 5763 5761 5759 5757 5755 5753 5751 5749 5747 5744 5742 5741 5740 5738 5736 5735 5733 5730 5728 5726 5724 5722 5721 5719 5718 5717 5716 5714 5712 5711 5710 5709 5709 5708 5707 5706 5706 5705
5771 5768 5766 5764 5762 5759 5757 5754 5752 5751 5750 5748 5745 5744 5742 5741 5739 5737 5735 5733 5731 5729 5728 5726 5724 5722 5720 5718 5717 5715 5714 5712 5710 5708 5707 5706 5705 5705 5703 5702 5701 5700 5700
5766 5763 5761 5759 5757 5754 5751 5749 5747 5746 5746 5744 5742 5740 5738 5737 5735 5733 5731 5729 5726 5724 5723 5722 5721 5720 5718 5716 5715 5712 5710 5708 5706 5704 5703 5702 5701 5700 5699 5699 5696 5695 5694
5761 5759 5756 5754 5751 5749 5746 5744 5742 5740 5740 5738 5736 5735 5733 5733 5731 5729 5727 5724 5721 5719 5718 5717 5716 5715 5714 5712 5711 5710 5709 5705 5703 5701 5700 5699 5699 5698 5696 5694 5691 5689 5688
5755 5753 5751 5748 5745 5743 5741 5738 5735 5734 5732 5730 5730 5728 5727 5727 5726 5724 5721 5719 5716 5714 5713 5711 5711 5711 5709 5708 5706 5705 5704 5703 5702 5700 5698 5697 5697 5696 5693 5690 5688 5687 5686
5748 5745 5745 5743 5739 5737 5734 5732 5730 5728 5725 5724 5723 5722 5720 5720 5719 5718 5715 5711 5709 5708 5707 5706 5704 5704 5703 5701 5700 5698 5698 5698 5698 5696 5696 5695 5695 5693 5691 5689 5687 5683 5681
5740 5738 5737 5736 5733 5730 5728 5726 5724 5721 5718 5717 5716 5715 5713 5713 5712 5709 5706 5704 5703 5702 5701 5700 5699 5698 5696 5694 5692 5691 5691 5691 5692 5691 5690 5689 5689 5687 5685 5682 5679 5676 5675
5733 5732 5731 5729 5727 5725 5723 5720 5717 5714 5712 5711 5709 5708 5707 5705 5703 5701 5698 5696 5696 5695 5694 5693 5691 5691 5689 5687 5685 5684 5683 5684 5684 5683 5682 5682 5681 5681 5679 5677 5676 5672 5670
5725 5723 5722 5721 5720 5718 5715 5712 5709 5706 5704 5702 5701 5699 5698 5697 5695 5692 5690 5689 5689 5688 5687 5686 5684 5682 5681 5679 5678 5678 5678 5677 5675 5674 5674 5674 5674 5673 5673 5672 5670 5669 5666
5714 5713 5712 5712 5711 5710 5706 5703 5701 5698 5695 5693 5690 5689 5689 5688 5686 5685 5683 5682 5682 5680 5680 5679 5677 5674 5673 5671 5670 5670 5669 5667 5666 5665 5665 5665 5665 5666 5666 5665 5664 5663 5662
5703 5702 5701 5702 5702 5700 5698 5694 5691 5688 5686 5684 5681 5680 5680 5679 5678 5677 5675 5674 5673 5672 5672 5670 5669 5667 5664 5663 5662 5661 5660 5658 5658 5657 5658 5659 5658 5658 5657 5656 5656 5655 5654
5692 5692 5691 5690 5690 5689 5687 5685 5682 5681 5679 5676 5674 5673 5671 5670 5670 5669 5667 5665 5664 5663 5662 5661 5659 5657 5655 5654 5653 5652 5651 5650 5649 5650 5650 5649 5649 5648 5648 5648 5647 5646 5645
5681 5681 5681 5680 5680 5678 5676 5674 5673 5673 5672 5670 5669 5666 5663 5662 5664 5661 5659 5658 5656 5654 5652 5650 5649 5647 5646 5645 5645 5644 5642 5641 5640 5640 5640 5639 5639 5639 5638 5638 5637 5637 5636
5669 5669 5669 5669 5669 5669 5667 5663 5662 5662 5661 5660 5660 5659 5657 5656 5655 5653 5650 5648 5646 5643 5640 5640 5640 5639 5637 5636 5635 5634 5633 5632 5632 5631 5631 5630 5630 5629 5629 5628 5627 5627 5627
5659 5658 5658 5659 5659 5658 5657 5654 5652 5651 5651 5649 5649 5648 5648 5646 5644 5642 5640 5637 5635 5632 5631 5631 5630 5629 5628 5627 5626 5625 5623 5623 5622 5621 5621 5621 5620 5620 5619 5619 5618 5617 5617
5649 5649 5648 5648 5648 5648 5648 5647 5645 5644 5643 5642 5640 5638 5637 5636 5634 5631 5630 5628 5626 5624 5624 5623 5621 5620 5618 5617 5617 5616 5615 5614 5613 5612 5612 5611 5611 5610 5610 5609 5609 5608 5608
5639 5639 5639 5639 5638 5638 5638 5638 5637 5635 5634 5633 5633 5631 5628 5626 5625 5623 5621 5621 5620 5619 5617 5615 5614 5612 5610 5609 5608 5608 5607 5606 5605 5603 5603 5602 5602 5601 5601 5601 5601 5599 5598
5631 5631 5631 5629 5628 5628 5629 5629 5628 5626 5625 5624 5624 5623 5621 5619 5618 5616 5614 5614 5613 5611 5609 5608 5606 5604 5603 5602 5601 5600 5599 5598 5597 5595 5594 5594 5593 5593 5593 5593 5592 5591 5590
5624 5623 5623 5621 5620 5620 5619 5619 5619 5618 5617 5616 5616 5614 5612 5612 5611 5609 5608 5606 5605 5603 5601 5599 5599 5597 5596 5594 5593 5591 5591 5590 5589 5588 5587 5585 5585 5584 5584 5584 5583 5582 5581
5616 5616 5614 5613 5612 5611 5611 5610 5609 5609 5608 5607 5607 5605 5603 5603 5602 5601 5600 5599 5597 5595 5594 5592 5591 5590 5588 5586 5585 5584 5584 5583 5581 5580 5579 5578 5577 5577 5577 5576 5575 5574 5573
5609 5608 5607 5606 5605 5604 5603 5602 5601 5600 5599 5599 5598 5597 5596 5595 5594 5594 5593 5591 5589 5587 5586 5584 5583 5582 5580 5579 5578 5577 5576 5576 5574 5572 5572 5571 5571 5570 5569 5568 5567 5566 5565
5602 5601 5600 5599 5597 5596 5596 5594 5593 5593 5592 5591 5590 5589 5588 5587 5586 5586 5585 5583 5582 5580 5578 5576 5575 5575 5574 5573 5572 5571 5570 5569 5567 5566 5565 5565 5564 5563 5561 5560 5560 5559 5558
5595 5594 5593 5592 5590 5589 5588 5587 5586 5586 5585 5584 5583 5582 5581 5579 5578 5577 5576 5575 5574 5573 5571 5570 5569 5568 5568 5567 5566 5565 5564 5562 5561 5560 5559 5558 5558 5557 5556 5555 5553 5552 5551
5587 5586 5585 5584 5583 5582 5581 5580 5579 5579 5578 5577 5575 5574 5573 5572 5571 5570 5569 5568 5567 5566 5564 5563 5561 5561 5561 5561 5560 5559 5558 5556 5554 5553 5552 5551 5551 5550 5550 5549 5548 5547 5546